THORAD DELTA 1 DEB, 8169

Orbit data source: Space-Track

THORAD DELTA 1 DEB, 8169 is space debris in SSO originally from a launch on Fri, 15 Nov 1974 UTC launched from the Air Force Western Test Range (AFWTR). Debris objects in space refer to the collection of defunct objects orbiting the Earth. Examples of debris include non-operational satellites, rocket bodies, and fragments generated from explosions, collisions, or faulty payload assembly.

Loading next visibility...
THORAD DELTA 1 DEB details
Identifier
8169, 1974-089AK
Orbit
SSO
Last TLE update1 day ago
Origin
Flag of USGSFC (US)
ManufacturerUnknown
MissionSpacecraft
Bus & MotorUnknown
MassUnknown
Launch date (UTC)
1974-11-15 (50 years ago)
Launch vehicleUnknown
Launch site
Air Force Western Test Range (AFWTR)
Object type
Payload
Rocket body
Debris
Shape & HBRUnknown
Radar Cross SectionSmall (<0.1 m²)

Expand to show TLE details & history

TLE from 1 day ago
0 THORAD DELTA 1 DEB
1 08169U 74089AK  25023.45970066  .00002724  00000-0  98104-2 0  9990
2 08169 102.5297 301.8536 0138638  84.7257 337.3582 12.92608095334867
Epoch: 2025-01-23T11:01Z
Definitive object data (Epoch: 2025-01-23T11:01:58.137Z)
Latitude59.1425°
Longitude-8.39558°
Altitude1,203.074 km
Speed7.304 km/s
True Right ascension18h 40m 32s
True Declination58° 59' 59"
Sunlit
Object was in daylight at TLE epoch
Visualization TLE readout
Latitude-11.1855°
Longitude-167.92306°
Altitude1,328.82 km
Speed7.177 km/s
Apparent Right ascension06h 08m 09s
Apparent Declination-29° 11' 49"
Sunlit
Object is in full shadow
Visualization observer readout
Local Sidereal Time14:57:51
Azimuth270.334° WNW
Elevation-49.882°
Doppler factor1
Orbital elements
Apogee altitude1,395.021 km
Perigee altitude1,182.437 km
Semi-major axis7,666.866 km
Eccentricity0.0138638
Inclination102.5297°
RAAN301.8536°
Arg. of periapsis84.7257°
True anomaly336.73669°
Mean anomaly337.3582°
Eccentric anomaly337.04845°
Mean motion3.23308 °/min
BSTAR0.0098104
Orbital period111.35 mins
Loading maneuver chart data...

THORAD DELTA 1 DEB Visibility forecast

Observer location: undefined°, undefined

Span
Click to sort rows by Start time (UTC) header in descending order
Start Az.
Max El. time (UTC)
Max El. Az.
Max El.
End time (UTC)
End Az.
9 mins2025-01-24 16:36:48.399Z99.615° ESE2025-01-24 16:41:48.399Z50.52° ENE21.471°2025-01-24 16:45:48.399Z11.858° NNE
12 mins2025-01-24 18:24:48.399Z171.612° S2025-01-24 18:29:48.399Z232.497° WSW43.277°2025-01-24 18:36:48.399Z336.866° NNW
9 mins2025-01-25 06:05:48.399Z56.005° ENE2025-01-25 06:09:48.399Z95.201° ESE20.721°2025-01-25 06:14:48.399Z141.47° SSE
13 mins2025-01-25 07:53:48.399Z11.63° NNE2025-01-25 07:59:48.399Z288.064° WNW42.857°2025-01-25 08:06:48.399Z212.105° SW
5 mins2025-01-25 09:45:48.399Z329.442° NNW2025-01-25 09:47:48.399Z311.777° NW13.248°2025-01-25 09:50:48.399Z286.334° WNW
|